LiveATC.Net - Listen to live air traffic control over the Internet!


ICAO: YPDN  IATA: DRW   Airport: Darwin International Airport
City: Darwin   State/Province: Northern Territory
Country: Australia   Continent: Oceania
YPDN METAR Weather: YPDN 192230Z 33004KT 9999 FEW020 SCT060 BKN250 26/24 Q1009 NOSIG
YPDN Flight Activity (FlightAware)
YPDN Gnd/Twr/App/Dep
Feed Status: DOWN
Last heard on: 2017-02-18 05:30:04 (1 days 17 hours 55 minutes ago)
YPDN Gnd/Twr/App/Dep Audio Archives
FacilityFrequency
Darwin Approach134.100
Darwin Arrival125.200
Darwin Departure119.550
Darwin Ground121.800
Darwin Tower133.100


NOTICE

Unauthorized use prohibited. See LiveATC.net Terms of Service


Find LiveATC Audio Streams


Airport/ARTCC Code

Frequency Search
(e.g., 124.400, 128.75)
Site-wide search
 


Browse LiveATC Feeds
LiveATC Coverage Map
Top 50 LiveATC Feeds
Bad Weather Areas

LiveATC FAQ
Offer a LiveATC Feed
Contact LiveATC.net
Press Inquiries

LiveATC on iPhone
LiveATC on Android

Windows Phone
Windows 8/10

LiveATC Mobile
(Mobile browser)

ATC Audio Archives
Interesting Recordings

LiveATC Forums


Home Page
About LiveATC.net
Make a Donation
LiveATC Store

Terms of Use
Privacy Policy

Canadian Air Freqs

AIRMETs/SIGMETs

FAA Airport Status
Nat'l Airspace Status
Arrival Demand Charts


Server Software By:
Icecast.org
Liquidsoap